Location: Recife
(8.0585°S, 34.8848°W)
Time: 11:21:46
(UTC-03:00)

Explorer 11/Cluster Stage 4 - Pass Details

Date: 22 April 2026
Orbit: 463 x 1174 km, 28.8° (Epoch: 20 May)

Event Time Altitude Azimuth Distance (km) Brightness Sun altitude
Rises 14:56:44 0° 319° (NW) 4,029 11.1 31.9°
Reaches altitude 10° 14:59:54 10° 328° (NNW) 3,072 10.5 31.2°
Maximum altitude 15:06:47 35° 30° (NNE) 1,748 8.5 29.6°
Drops below altitude 10° 15:13:10 10° 93° (E) 2,855 9.0 28.1°
Sets 15:15:59 0° 102° (ESE) 3,714 9.5 27.4°
